Wind_Speed
37 38 38 39 41 42 42 42 43 43 43 44 44 44 44 44 44 45 45 45 47 47 47 46 46 47 47 46 46 46 47 48 49 50 51 51 51 52 53 54 54 55 56
37 37 38 39 39 40 41 41 42 43 43 44 44 45 45 45 45 46 46 45 46 45 45 45 45 45 46 47 47 47 48 48 49 49 50 50 50 51 50 51 52 53 53
37 37 38 39 39 40 41 42 42 42 43 43 43 43 43 44 44 43 43 43 44 43 43 43 44 45 46 46 46 46 47 47 47 47 46 46 46 47 47 47 48 48 48
37 38 39 39 40 40 41 41 42 42 42 42 41 41 41 42 41 41 41 41 42 42 42 42 42 42 42 42 43 43 43 43 42 42 42 41 41 41 41 41 41 41 40
36 37 38 38 38 38 38 39 40 40 40 40 39 39 39 39 39 38 38 38 38 39 38 38 38 38 39 39 39 39 38 37 37 36 36 36 36 36 36 36 36 35 34
34 35 36 36 36 36 36 36 36 36 36 36 36 36 36 36 36 36 36 36 36 36 36 36 35 35 35 34 33 32 32 32 32 32 32 32 32 32 32 32 31 30 30
32 32 33 33 33 33 32 32 33 33 33 33 33 33 33 34 34 34 34 34 34 33 33 32 31 30 31 31 30 29 29 30 30 29 29 29 29 29 29 28 28 28 27
29 29 29 29 29 28 28 29 29 30 29 30 30 31 31 31 32 32 32 31 31 30 29 28 28 29 29 28 28 28 28 28 27 28 28 27 27 27 26 26 25 25 25
26 26 26 24 24 24 24 26 26 26 27 28 28 28 29 29 30 29 28 27 26 25 26 26 26 27 26 26 26 26 26 26 25 24 24 23 23 23 23 23 23 22 22
22 22 22 21 22 23 24 24 24 25 26 26 26 26 26 26 25 24 24 23 23 24 24 24 24 24 24 24 23 23 23 22 21 20 19 19 20 20 20 20 20 19 19
19 20 20 20 20 21 22 22 23 23 23 23 23 23 23 23 22 22 22 22 22 22 21 21 21 21 21 20 19 19 19 18 17 16 16 17 17 17 18 18 17 17 17
18 18 18 19 19 20 21 21 21 21 21 21 22 22 21 21 20 20 20 19 19 19 19 18 18 18 17 16 15 16 16 15 15 14 14 15 15 16 16 16 16 16 16
17 18 18 18 19 19 19 19 19 19 19 20 20 20 19 19 18 18 17 17 17 16 16 15 15 15 14 13 13 14 14 13 13 13 13 13 14 14 15 15 15 15 15
16 16 17 17 17 17 17 17 17 17 18 18 17 16 16 15 15 14 14 14 14 13 13 13 13 13 13 13 13 13 13 12 12 13 13 13 13 13 13 14 14 14 15
13 14 14 15 15 15 15 15 15 15 15 15 14 13 13 12 12 12 12 11 11 11 11 11 11 12 12 13 12 12 12 12 12 12 12 12 13 13 13 13 13 13 14
11 12 13 13 13 13 13 13 13 13 13 12 11 11 10 10 10 10 10 9 9 10 10 10 10 11 12 12 12 12 12 12 12 12 12 12 12 12 12 12 13 13 14
10 10 11 11 11 10 11 11 10 10 10 9 9 8 8 9 9 9 9 9 9 9 9 9 10 11 11 11 11 11 11 11 11 11 11 11 11 11 11 11 12 12 13
9 9 9 9 9 9 9 9 8 8 8 8 8 7 8 9 9 9 8 9 9 9 9 10 10 11 11 11 11 11 11 10 10 10 10 10 10 10 10 10 11 12 12
8 8 8 9 8 8 8 7 7 7 7 8 8 8 9 9 8 8 8 8 9 9 10 10 11 11 11 11 11 10 11 11 10 10 10 9 9 9 10 10 10 11 12
7 7 8 8 8 7 7 6 6 7 7 7 8 8 8 8 8 8 9 9 10 10 11 11 11 11 11 11 10 10 11 10 10 9 9 8 8 9 9 9 10 10 11
7 7 8 8 8 7 7 7 7 7 7 7 7 7 8 8 8 9 9 10 10 11 11 11 11 10 10 10 10 10 10 9 9 9 9 9 9 9 9 9 9 10 11
7 7 7 7 7 7 7 7 7 7 7 7 7 7 8 8 9 9 10 10 11 11 11 11 11 11 11 11 11 10 10 9 9 8 9 8 9 9 9 9 9 10 10
6 7 7 8 8 8 8 8 8 8 7 7 8 8 8 9 9 10 10 10 11 11 11 11 11 11 11 11 11 10 10 9 9 9 9 9 9 9 9 9 10 10 11
7 8 8 9 9 8 8 8 8 8 8 8 8 9 9 9 10 10 10 10 11 11 11 11 11 12 12 11 11 11 10 10 10 10 10 10 10 10 10 10 11 11 12
9 9 9 9 9 9 9 9 9 9 8 9 9 9 9 10 10 10 11 11 11 11 12 12 12 12 12 12 12 12 11 11 11 11 11 11 12 12 12 13 13 13 14
10 10 10 9 9 9 9 9 9 9 9 9 9 10 10 10 10 11 11 11 12 12 12 12 13 13 13 13 13 13 13 13 12 12 12 13 13 13 14 15 15 16 16
Wind_Direction
269 271 273 275 276 277 279 281 282 284 285 285 285 286 288 288 288 288 288 289 290 289 289 288 288 287 287 285 286 288 288 288 287 288 288 287 286 285 284 284 283 282 281
271 272 274 276 277 278 280 282 282 283 283 284 284 285 287 287 287 287 287 288 289 288 288 287 286 287 288 288 289 289 289 289 289 289 288 288 288 288 287 286 286 285 285
272 274 275 277 278 279 281 282 282 283 283 284 284 285 286 286 286 287 287 288 289 289 289 289 288 289 290 290 290 290 291 291 291 290 290 290 291 291 291 290 290 289 288
273 274 276 278 279 280 280 281 282 283 284 285 286 286 286 286 287 289 290 291 291 291 291 291 290 292 293 293 294 294 294 294 294 294 294 295 295 295 296 296 295 294 293
274 274 277 279 279 280 280 281 281 282 284 285 286 288 289 290 292 292 292 292 292 292 292 293 293 295 296 296 297 298 298 298 298 298 298 299 299 300 300 300 300 299 298
276 276 277 278 279 280 280 280 281 283 285 286 287 289 291 293 293 292 292 294 294 294 295 296 297 297 298 299 300 302 303 302 302 302 303 303 304 305 305 305 305 304 303
277 277 277 277 279 279 280 282 284 286 286 287 288 289 292 293 293 293 295 296 296 296 296 297 298 299 300 301 303 305 305 305 305 305 306 308 309 310 311 311 311 310 309
277 276 277 278 279 281 283 285 286 287 287 289 290 292 293 293 294 295 296 297 297 297 298 299 301 303 304 305 306 307 307 307 306 307 309 311 313 314 315 317 317 317 316
277 276 278 281 283 284 287 289 291 292 294 295 296 296 296 296 297 298 299 300 301 302 303 304 305 306 306 306 307 307 308 309 310 311 314 316 319 321 322 323 323 323 324
279 280 283 284 286 289 290 291 292 294 296 298 298 298 299 300 301 301 302 303 304 305 305 306 307 308 309 309 310 311 313 315 317 320 323 327 329 331 332 331 332 333 333
285 285 286 287 288 290 292 293 294 296 298 299 301 302 302 302 303 303 304 305 307 308 308 309 311 313 314 315 316 318 320 323 326 330 333 336 337 338 339 340 342 343 344
287 287 289 291 292 293 294 296 297 299 301 302 303 303 302 302 303 303 305 307 310 312 313 314 317 320 322 323 326 329 332 335 336 337 337 339 341 344 347 348 349 351 351
290 288 290 293 295 296 298 300 301 303 304 305 304 302 302 302 303 305 308 312 316 318 320 322 325 327 329 333 336 337 339 340 341 342 343 344 346 348 351 352 354 356 358
293 292 294 297 300 301 303 305 306 307 307 308 306 305 304 305 307 311 314 319 322 326 329 332 335 338 341 342 343 344 345 346 347 348 348 348 350 351 353 353 355 358 359
297 299 301 301 302 305 307 309 310 311 312 313 312 311 313 314 316 320 323 326 331 335 338 342 345 347 348 349 349 350 350 350 350 350 350 351 352 352 353 354 356 358 358
306 306 306 307 308 309 311 314 316 318 319 320 320 322 326 328 329 331 334 336 339 341 345 349 350 350 350 350 351 351 352 352 352 351 350 351 353 354 356 357 358 359 359
313 314 316 316 316 317 319 321 323 325 329 332 334 337 341 341 340 341 343 344 347 350 351 350 350 350 351 352 352 352 352 351 351 350 350 350 353 356 358 1 3 4 4
323 324 325 325 325 325 327 329 332 335 338 342 346 350 350 348 348 350 352 353 353 352 351 349 349 350 351 352 352 352 353 352 351 351 352 354 357 0 3 7 9 11 12
331 333 335 336 337 336 337 340 341 342 344 347 350 349 349 351 354 357 357 357 355 353 352 350 349 350 351 351 352 353 354 354 354 356 358 1 3 4 6 10 13 16 17
341 345 347 348 349 348 349 351 350 348 349 349 352 354 356 358 359 359 359 359 358 357 356 354 352 351 351 352 353 354 356 358 2 5 7 8 10 11 12 15 20 23 25
350 356 358 359 1 1 2 3 2 1 1 3 5 5 3 4 3 3 3 2 1 360 358 358 358 360 0 360 359 359 1 5 8 11 15 16 16 17 20 25 30 32 32
0 5 8 10 12 11 11 11 10 9 9 9 10 8 7 8 8 7 5 3 4 5 5 6 7 6 5 5 6 8 10 12 15 20 23 26 26 26 31 35 37 38 37
11 16 18 17 15 14 13 13 12 11 11 13 13 12 10 10 10 8 7 8 10 12 13 13 12 11 12 13 15 17 20 24 28 31 33 36 36 36 40 43 44 45 44
23 24 22 19 19 20 20 19 17 17 19 21 21 18 16 15 13 13 15 16 17 18 18 19 20 20 21 23 25 28 32 36 39 42 44 47 48 47 50 52 53 54 53
31 27 26 26 27 27 28 27 26 26 26 26 25 23 22 22 23 26 27 26 25 24 26 28 28 29 32 35 37 39 42 46 50 52 54 56 57 58 60 62 62 62 61
37 33 32 32 30 29 29 27 26 26 27 27 27 28 29 31 33 32 31 31 32 33 35 36 37 39 41 44 46 48 52 55 58 59 61 64 66 66 67 67 67 67 66
Height
5788 5788 5788 5787 5786 5786 5785 5784 5782 5781 5780 5778 5777 5775 5773 5771 5769 5766 5764 5761 5758 5756 5753 5750 5746 5743 5740 5737 5733 5729 5725 5721 5717 5711 5706 5701 5696 5692 5687 5683 5678 5675 5671
5779 5779 5778 5778 5777 5776 5775 5773 5772 5771 5770 5768 5766 5764 5762 5760 5758 5756 5753 5750 5747 5744 5741 5737 5734 5731 5727 5724 5720 5716 5711 5707 5702 5697 5692 5687 5682 5677 5673 5668 5663 5659 5656
5770 5769 5769 5768 5767 5766 5765 5763 5762 5761 5759 5757 5755 5753 5751 5749 5747 5744 5741 5738 5735 5732 5729 5726 5723 5719 5715 5711 5707 5703 5698 5693 5688 5684 5679 5674 5669 5664 5660 5655 5650 5646 5642
5760 5760 5759 5758 5757 5756 5755 5753 5752 5751 5749 5747 5745 5743 5741 5739 5736 5733 5730 5727 5724 5721 5718 5714 5711 5707 5703 5698 5694 5690 5685 5680 5676 5671 5667 5662 5658 5653 5648 5644 5639 5635 5630
5751 5750 5749 5749 5748 5747 5745 5744 5742 5741 5739 5737 5735 5733 5731 5728 5725 5723 5720 5717 5714 5710 5707 5703 5700 5696 5691 5687 5683 5678 5674 5670 5665 5661 5657 5653 5648 5644 5639 5634 5630 5626 5622
5742 5741 5740 5739 5738 5737 5736 5734 5733 5731 5730 5728 5726 5724 5721 5719 5716 5713 5710 5707 5704 5701 5697 5693 5690 5686 5681 5678 5673 5669 5665 5661 5657 5653 5649 5644 5640 5636 5631 5627 5622 5619 5615
5733 5732 5731 5730 5730 5728 5727 5726 5724 5723 5721 5719 5717 5715 5712 5710 5707 5704 5701 5698 5694 5691 5688 5684 5681 5677 5673 5670 5666 5661 5658 5654 5650 5646 5642 5637 5633 5629 5624 5620 5616 5612 5608
5725 5724 5723 5722 5721 5720 5719 5718 5716 5714 5712 5710 5708 5706 5704 5701 5698 5695 5692 5689 5686 5683 5679 5676 5673 5669 5666 5662 5659 5655 5651 5647 5643 5639 5635 5631 5626 5622 5618 5614 5610 5607 5603
5718 5717 5716 5715 5714 5713 5712 5710 5708 5707 5705 5703 5700 5698 5695 5693 5690 5687 5684 5681 5678 5676 5672 5669 5666 5663 5659 5655 5652 5649 5645 5641 5637 5633 5629 5625 5621 5617 5613 5610 5606 5603 5599
5712 5711 5710 5709 5708 5707 5705 5703 5702 5700 5698 5696 5693 5691 5688 5686 5683 5680 5678 5675 5672 5669 5666 5663 5660 5656 5653 5649 5646 5643 5639 5635 5632 5628 5625 5621 5617 5614 5610 5607 5603 5600 5596
5706 5705 5704 5703 5702 5700 5699 5697 5695 5693 5691 5689 5687 5684 5682 5679 5677 5674 5672 5669 5667 5664 5661 5658 5654 5651 5648 5644 5641 5638 5635 5631 5628 5625 5622 5619 5616 5612 5608 5605 5601 5598 5595
5700 5699 5699 5698 5696 5695 5693 5691 5689 5687 5685 5683 5681 5678 5676 5674 5672 5669 5667 5664 5661 5659 5656 5653 5650 5647 5644 5641 5638 5635 5632 5629 5626 5623 5620 5617 5614 5611 5607 5604 5601 5597 5594
5696 5695 5694 5693 5691 5689 5688 5686 5684 5682 5680 5678 5675 5673 5671 5669 5667 5665 5662 5660 5657 5655 5652 5649 5646 5644 5641 5638 5636 5633 5630 5627 5624 5621 5619 5616 5613 5610 5607 5604 5601 5597 5594
5691 5690 5689 5688 5686 5684 5682 5681 5679 5677 5675 5673 5670 5668 5666 5665 5663 5661 5658 5656 5654 5652 5649 5647 5644 5642 5639 5637 5634 5631 5629 5626 5623 5621 5618 5615 5612 5610 5607 5604 5601 5597 5594
5687 5686 5685 5683 5682 5680 5678 5676 5675 5673 5671 5669 5667 5665 5663 5661 5660 5658 5656 5654 5652 5650 5648 5645 5643 5641 5638 5635 5633 5630 5628 5625 5623 5620 5617 5615 5612 5609 5606 5603 5600 5597 5594
5684 5683 5682 5680 5679 5677 5675 5673 5671 5670 5668 5666 5664 5662 5660 5659 5657 5656 5654 5652 5650 5648 5646 5644 5642 5640 5637 5635 5632 5630 5627 5625 5622 5619 5617 5614 5611 5609 5606 5603 5600 5598 5595
5682 5680 5679 5677 5676 5674 5672 5671 5669 5668 5666 5664 5663 5661 5659 5658 5656 5655 5653 5651 5649 5647 5646 5643 5641 5639 5636 5634 5631 5629 5626 5624 5621 5619 5616 5614 5611 5609 5606 5603 5601 5598 5595
5680 5678 5677 5675 5674 5672 5671 5670 5668 5667 5665 5664 5662 5660 5659 5657 5656 5654 5652 5651 5649 5647 5645 5643 5640 5638 5636 5633 5631 5628 5626 5623 5621 5618 5616 5613 5611 5609 5606 5604 5601 5599 5596
5679 5677 5676 5674 5673 5671 5670 5669 5667 5666 5665 5663 5662 5660 5659 5657 5655 5654 5652 5650 5649 5647 5644 5642 5640 5637 5635 5632 5630 5627 5625 5623 5620 5618 5615 5613 5611 5609 5607 5604 5602 5600 5597
5678 5676 5675 5673 5672 5671 5669 5668 5667 5666 5664 5663 5662 5660 5658 5657 5655 5654 5652 5650 5648 5646 5644 5642 5639 5637 5634 5632 5629 5627 5625 5622 5620 5618 5615 5613 5611 5609 5607 5605 5603 5601 5599
5677 5676 5674 5673 5672 5671 5670 5668 5667 5666 5664 5663 5662 5660 5659 5657 5655 5654 5652 5650 5648 5646 5644 5641 5639 5636 5634 5632 5629 5627 5625 5622 5620 5618 5616 5614 5612 5610 5608 5606 5604 5602 5600
5677 5676 5675 5674 5673 5671 5670 5669 5667 5666 5665 5663 5662 5661 5659 5657 5656 5654 5652 5650 5648 5646 5644 5641 5639 5637 5634 5632 5629 5627 5625 5622 5620 5618 5617 5615 5613 5611 5609 5607 5606 5604 5602
5678 5677 5676 5675 5673 5672 5671 5669 5668 5667 5665 5664 5663 5661 5660 5658 5656 5654 5653 5651 5648 5646 5644 5642 5639 5637 5634 5632 5630 5627 5625 5623 5621 5619 5618 5616 5614 5613 5611 5609 5608 5606 5604
5679 5678 5677 5675 5674 5673 5672 5670 5669 5668 5666 5665 5663 5662 5660 5659 5657 5655 5653 5651 5649 5647 5645 5643 5640 5638 5635 5633 5631 5628 5626 5624 5623 5621 5619 5618 5616 5615 5613 5611 5610 5608 5607
5680 5679 5678 5677 5675 5674 5673 5672 5670 5669 5668 5666 5665 5663 5661 5660 5658 5656 5654 5653 5651 5648 5646 5644 5642 5639 5637 5635 5632 5630 5628 5626 5625 5623 5622 5620 5619 5618 5616 5614 5613 5612 5610
5682 5681 5680 5678 5677 5676 5675 5673 5672 5670 5669 5668 5666 5665 5663 5661 5660 5658 5656 5654 5652 5650 5648 5646 5644 5642 5639 5637 5635 5633 5631 5629 5628 5626 5625 5623 5622 5621 5620 5618 5617 5616 5615